Time,TemperatureF,DewpointF,PressureIn,WindDirection,WindDirectionDegrees,WindSpeedMPH,WindSpeedGustMPH,Humidity,HourlyPrecipIn,Conditions,Clouds,dailyrainin,SoftwareType,DateUTC
2013-03-31 00:00:00,32.2,17.4,30.08,WNW,288,0.0,3.1,54,0.00,,CLR,0.00,VWS V13.00,2013-03-31 04:00:00,
2013-03-31 00:05:00,32.5,17.8,30.08,WNW,288,0.0,0.0,54,0.00,,CLR,0.00,VWS V13.00,2013-03-31 04:05:00,
2013-03-31 00:10:00,32.2,17.8,30.08,WNW,288,0.0,0.0,55,0.00,,CLR,0.00,VWS V13.00,2013-03-31 04:10:00,
2013-03-31 00:15:00,32.0,17.7,30.08,WNW,288,0.0,0.0,55,0.00,,CLR,0.00,VWS V13.00,2013-03-31 04:15:00,
2013-03-31 00:20:00,31.6,17.3,30.08,WNW,288,0.0,0.0,55,0.00,,CLR,0.00,VWS V13.00,2013-03-31 04:20:00,
2013-03-31 00:25:00,31.6,17.8,30.08,WNW,288,2.2,2.7,56,0.00,,CLR,0.00,VWS V13.00,2013-03-31 04:25:00,
2013-03-31 00:30:00,31.6,17.8,30.08,WNW,288,0.0,3.1,56,0.00,,CLR,0.00,VWS V13.00,2013-03-31 04:30:00,
2013-03-31 00:35:00,31.6,17.8,30.08,WNW,288,0.0,3.1,56,0.00,,CLR,0.00,VWS V13.00,2013-03-31 04:35:00,
2013-03-31 00:40:00,31.1,17.2,30.08,WNW,288,0.0,3.1,56,0.00,,CLR,0.00,VWS V13.00,2013-03-31 04:40:00,
2013-03-31 00:45:00,30.9,17.5,30.08,WNW,288,0.0,0.0,57,0.00,,CLR,0.00,VWS V13.00,2013-03-31 04:45:00,
2013-03-31 00:50:00,30.7,17.3,30.08,WNW,288,0.0,0.0,57,0.00,,CLR,0.00,VWS V13.00,2013-03-31 04:50:00,
2013-03-31 00:55:00,30.6,17.1,30.08,WNW,288,0.0,0.0,57,0.00,,CLR,0.00,VWS V13.00,2013-03-31 04:55:00,
2013-03-31 01:00:00,30.7,17.7,30.08,WNW,288,0.0,0.0,58,0.00,,CLR,0.00,VWS V13.00,2013-03-31 05:00:00,
2013-03-31 01:05:00,30.7,17.7,30.08,WNW,288,0.0,2.7,58,0.00,,CLR,0.00,VWS V13.00,2013-03-31 05:05:00,
2013-03-31 01:10:00,30.9,17.9,30.08,WNW,288,0.0,2.7,58,0.00,,CLR,0.00,VWS V13.00,2013-03-31 05:10:00,
2013-03-31 01:15:00,30.7,17.7,30.08,WNW,288,0.0,2.7,58,0.00,,CLR,0.00,VWS V13.00,2013-03-31 05:15:00,
2013-03-31 01:20:00,30.6,17.6,30.08,WNW,288,0.0,0.0,58,0.00,,CLR,0.00,VWS V13.00,2013-03-31 05:20:00,
2013-03-31 01:25:00,30.4,17.4,30.08,WNW,288,0.0,0.0,58,0.00,,CLR,0.00,VWS V13.00,2013-03-31 05:25:00,
2013-03-31 01:30:00,30.4,17.8,30.08,WNW,288,0.0,0.0,59,0.00,,CLR,0.00,VWS V13.00,2013-03-31 05:30:00,
2013-03-31 01:35:00,30.4,17.8,30.08,WNW,288,0.0,0.0,59,0.00,,CLR,0.00,VWS V13.00,2013-03-31 05:35:00,
2013-03-31 01:41:00,30.2,17.6,30.08,WNW,288,0.0,0.0,59,0.00,,CLR,0.00,VWS V13.00,2013-03-31 05:41:00,
2013-03-31 01:46:00,30.0,17.8,30.08,WNW,288,0.0,0.0,60,0.00,,CLR,0.00,VWS V13.00,2013-03-31 05:46:00,
2013-03-31 01:51:00,29.8,17.7,30.08,WNW,288,0.0,3.1,60,0.00,,CLR,0.00,VWS V13.00,2013-03-31 05:51:00,
2013-03-31 01:56:00,29.7,17.9,30.08,WNW,288,2.7,3.1,61,0.00,,CLR,0.00,VWS V13.00,2013-03-31 05:56:00,
2013-03-31 02:01:00,29.8,18.0,30.08,WNW,288,0.0,0.0,61,0.00,,CLR,0.00,VWS V13.00,2013-03-31 06:01:00,
2013-03-31 02:06:00,29.8,18.0,30.08,WNW,288,0.0,2.7,61,0.00,,CLR,0.00,VWS V13.00,2013-03-31 06:06:00,
2013-03-31 02:11:00,29.5,17.7,30.08,WNW,288,0.0,2.7,61,0.00,,CLR,0.00,VWS V13.00,2013-03-31 06:11:00,
2013-03-31 02:17:00,29.3,17.9,30.08,WNW,288,0.0,2.7,62,0.00,,CLR,0.00,VWS V13.00,2013-03-31 06:17:00,
2013-03-31 02:22:00,29.3,17.9,30.08,WNW,288,0.0,0.0,62,0.00,,CLR,0.00,VWS V13.00,2013-03-31 06:22:00,
2013-03-31 02:27:00,29.3,18.3,30.08,WNW,288,0.0,0.0,63,0.00,,CLR,0.00,VWS V13.00,2013-03-31 06:27:00,
2013-03-31 02:32:00,29.3,18.3,30.08,WNW,288,0.0,0.0,63,0.00,,CLR,0.00,VWS V13.00,2013-03-31 06:32:00,
2013-03-31 02:37:00,29.1,18.1,30.08,WNW,288,0.0,0.0,63,0.00,,CLR,0.00,VWS V13.00,2013-03-31 06:37:00,
2013-03-31 02:42:00,29.1,18.5,30.08,WNW,288,0.0,0.0,64,0.00,,CLR,0.00,VWS V13.00,2013-03-31 06:42:00,
2013-03-31 02:47:00,29.1,18.5,30.05,WNW,288,0.0,0.0,64,0.00,,CLR,0.00,VWS V13.00,2013-03-31 06:47:00,
2013-03-31 02:52:00,28.9,18.3,30.05,WNW,288,0.0,0.0,64,0.00,,CLR,0.00,VWS V13.00,2013-03-31 06:52:00,
2013-03-31 02:57:00,28.8,18.1,30.05,WNW,288,0.0,0.0,64,0.00,,CLR,0.00,VWS V13.00,2013-03-31 06:57:00,
2013-03-31 03:02:00,28.8,18.1,30.05,WNW,288,2.2,2.2,64,0.00,,CLR,0.00,VWS V13.00,2013-03-31 07:02:00,
2013-03-31 03:07:00,28.8,18.1,30.05,WNW,288,0.0,2.2,64,0.00,,CLR,0.00,VWS V13.00,2013-03-31 07:07:00,
2013-03-31 03:12:00,28.6,18.0,30.05,WNW,288,2.7,2.7,64,0.00,,CLR,0.00,VWS V13.00,2013-03-31 07:12:00,
2013-03-31 03:17:00,28.8,18.1,30.05,WNW,288,2.2,2.7,64,0.00,,CLR,0.00,VWS V13.00,2013-03-31 07:17:00,
2013-03-31 03:22:00,28.6,18.0,30.05,WNW,288,0.0,0.0,64,0.00,,CLR,0.00,VWS V13.00,2013-03-31 07:22:00,
2013-03-31 03:27:00,28.6,18.0,30.05,WNW,288,0.0,0.0,64,0.00,,CLR,0.00,VWS V13.00,2013-03-31 07:27:00,
2013-03-31 03:32:00,28.6,18.3,30.05,WNW,288,0.0,0.0,65,0.00,,CLR,0.00,VWS V13.00,2013-03-31 07:32:00,
2013-03-31 03:37:00,28.4,18.5,30.05,WNW,288,0.0,0.0,66,0.00,,CLR,0.00,VWS V13.00,2013-03-31 07:37:00,
2013-03-31 03:42:00,28.4,18.5,30.05,WNW,288,0.0,0.0,66,0.00,,CLR,0.00,VWS V13.00,2013-03-31 07:42:00,
2013-03-31 03:47:00,28.4,18.5,30.05,WNW,288,0.0,0.0,66,0.00,,CLR,0.00,VWS V13.00,2013-03-31 07:47:00,
2013-03-31 03:52:00,28.6,18.7,30.05,WNW,288,2.7,2.7,66,0.00,,CLR,0.00,VWS V13.00,2013-03-31 07:52:00,
2013-03-31 03:57:00,28.4,18.9,30.05,WNW,288,2.2,3.1,67,0.00,,CLR,0.00,VWS V13.00,2013-03-31 07:57:00,
2013-03-31 04:02:00,28.6,19.0,30.05,WNW,288,0.0,3.1,67,0.00,,CLR,0.00,VWS V13.00,2013-03-31 08:02:00,
2013-03-31 04:07:00,28.4,18.9,30.05,WNW,288,2.7,3.1,67,0.00,,CLR,0.00,VWS V13.00,2013-03-31 08:07:00,
2013-03-31 04:12:00,28.6,19.0,30.05,WNW,288,3.1,3.1,67,0.00,,CLR,0.00,VWS V13.00,2013-03-31 08:12:00,
2013-03-31 04:17:00,28.6,19.0,30.05,WNW,288,2.7,3.1,67,0.00,,CLR,0.00,VWS V13.00,2013-03-31 08:17:00,
2013-03-31 04:23:00,28.6,19.0,30.05,WNW,288,2.7,2.7,67,0.00,,CLR,0.00,VWS V13.00,2013-03-31 08:23:00,
2013-03-31 04:28:00,29.1,19.5,30.05,WNW,288,0.0,2.7,67,0.00,,CLR,0.00,VWS V13.00,2013-03-31 08:28:00,
2013-03-31 04:33:00,28.9,19.4,30.05,WNW,288,0.0,2.7,67,0.00,,CLR,0.00,VWS V13.00,2013-03-31 08:33:00,
2013-03-31 04:38:00,28.6,19.0,30.05,WNW,288,0.0,2.7,67,0.00,,CLR,0.00,VWS V13.00,2013-03-31 08:38:00,
2013-03-31 04:43:00,28.6,19.0,30.05,WNW,288,0.0,0.0,67,0.00,,CLR,0.00,VWS V13.00,2013-03-31 08:43:00,
2013-03-31 04:48:00,28.2,19.0,30.05,WNW,288,0.0,0.0,68,0.00,,CLR,0.00,VWS V13.00,2013-03-31 08:48:00,
2013-03-31 04:53:00,28.0,18.9,30.05,WNW,288,0.0,0.0,68,0.00,,CLR,0.00,VWS V13.00,2013-03-31 08:53:00,
2013-03-31 04:58:00,28.0,19.2,30.05,WNW,288,0.0,0.0,69,0.00,,CLR,0.00,VWS V13.00,2013-03-31 08:58:00,
2013-03-31 05:03:00,28.2,19.4,30.05,WNW,288,0.0,0.0,69,0.00,,CLR,0.00,VWS V13.00,2013-03-31 09:03:00,
2013-03-31 05:08:00,28.2,19.7,30.05,WNW,288,0.0,0.0,70,0.00,,CLR,0.00,VWS V13.00,2013-03-31 09:08:00,
2013-03-31 05:13:00,28.2,19.7,30.05,WNW,288,0.0,0.0,70,0.00,,CLR,0.00,VWS V13.00,2013-03-31 09:13:00,
2013-03-31 05:18:00,28.2,19.7,30.05,WNW,288,2.7,3.1,70,0.00,,CLR,0.00,VWS V13.00,2013-03-31 09:18:00,
2013-03-31 05:23:00,28.8,20.2,30.05,WNW,288,2.7,3.1,70,0.00,,CLR,0.00,VWS V13.00,2013-03-31 09:23:00,
2013-03-31 05:28:00,28.8,20.2,30.05,WNW,288,2.7,3.1,70,0.00,,CLR,0.00,VWS V13.00,2013-03-31 09:28:00,
2013-03-31 05:33:00,28.6,20.0,30.05,WNW,288,2.7,3.1,70,0.00,,CLR,0.00,VWS V13.00,2013-03-31 09:33:00,
2013-03-31 05:38:00,28.6,20.0,30.05,WNW,288,2.7,3.1,70,0.00,,CLR,0.00,VWS V13.00,2013-03-31 09:38:00,
2013-03-31 05:43:00,28.4,19.9,30.05,WNW,288,0.0,0.0,70,0.00,,CLR,0.00,VWS V13.00,2013-03-31 09:43:00,
2013-03-31 05:48:00,28.2,19.7,30.05,WNW,288,0.0,0.0,70,0.00,,CLR,0.00,VWS V13.00,2013-03-31 09:48:00,
2013-03-31 05:53:00,28.2,20.0,30.05,WNW,288,0.0,0.0,71,0.00,,CLR,0.00,VWS V13.00,2013-03-31 09:53:00,
2013-03-31 05:59:00,28.4,20.2,30.05,WNW,288,0.0,0.0,71,0.00,,CLR,0.00,VWS V13.00,2013-03-31 09:59:00,
2013-03-31 06:04:00,28.0,19.9,30.05,WNW,288,0.0,0.0,71,0.00,,CLR,0.00,VWS V13.00,2013-03-31 10:04:00,
2013-03-31 06:09:00,28.2,20.0,30.05,WNW,288,0.0,0.0,71,0.00,,CLR,0.00,VWS V13.00,2013-03-31 10:09:00,
2013-03-31 06:14:00,28.0,19.9,30.02,WNW,288,0.0,0.0,71,0.00,,CLR,0.00,VWS V13.00,2013-03-31 10:14:00,
2013-03-31 06:19:00,27.9,19.7,30.02,WNW,288,0.0,0.0,71,0.00,,CLR,0.00,VWS V13.00,2013-03-31 10:19:00,
2013-03-31 06:24:00,27.9,20.0,30.02,WNW,288,0.0,0.0,72,0.00,,CLR,0.00,VWS V13.00,2013-03-31 10:24:00,
2013-03-31 06:29:00,28.0,20.2,30.02,WNW,288,0.0,0.0,72,0.00,,CLR,0.00,VWS V13.00,2013-03-31 10:29:00,
2013-03-31 06:34:00,28.0,20.2,30.02,WNW,288,0.0,0.0,72,0.00,,CLR,0.00,VWS V13.00,2013-03-31 10:34:00,
2013-03-31 06:39:00,28.2,20.7,30.02,WNW,288,2.7,3.1,73,0.00,,CLR,0.00,VWS V13.00,2013-03-31 10:39:00,
2013-03-31 06:44:00,28.4,20.9,30.02,WNW,288,3.1,3.1,73,0.00,,CLR,0.00,VWS V13.00,2013-03-31 10:44:00,
2013-03-31 06:49:00,28.4,20.9,30.02,WNW,288,0.0,3.1,73,0.00,,CLR,0.00,VWS V13.00,2013-03-31 10:49:00,
2013-03-31 06:54:00,28.9,21.4,30.02,WNW,288,2.7,3.1,73,0.00,,CLR,0.00,VWS V13.00,2013-03-31 10:54:00,
2013-03-31 06:59:00,28.8,21.2,30.02,WNW,288,2.2,3.1,73,0.00,,CLR,0.00,VWS V13.00,2013-03-31 10:59:00,
2013-03-31 07:04:00,28.9,21.4,30.02,WNW,288,2.2,3.1,73,0.00,,CLR,0.00,VWS V13.00,2013-03-31 11:04:00,
2013-03-31 07:09:00,29.5,21.9,30.02,WNW,288,2.7,3.1,73,0.00,,CLR,0.00,VWS V13.00,2013-03-31 11:09:00,
2013-03-31 07:15:00,29.5,21.9,30.02,WNW,288,2.7,3.1,73,0.00,,CLR,0.00,VWS V13.00,2013-03-31 11:15:00,
2013-03-31 07:20:00,29.7,22.1,30.02,WNW,288,2.7,3.1,73,0.00,,CLR,0.00,VWS V13.00,2013-03-31 11:20:00,
2013-03-31 07:25:00,30.4,22.5,30.02,WNW,288,2.2,3.1,72,0.00,,CLR,0.00,VWS V13.00,2013-03-31 11:25:00,
2013-03-31 07:30:00,30.9,23.0,30.02,WNW,288,0.0,3.1,72,0.00,,CLR,0.00,VWS V13.00,2013-03-31 11:30:00,
2013-03-31 07:35:00,31.1,23.1,30.02,WNW,288,0.0,3.1,72,0.00,,CLR,0.00,VWS V13.00,2013-03-31 11:35:00,
2013-03-31 07:40:00,31.8,23.8,30.02,WNW,288,0.0,3.1,72,0.00,,CLR,0.00,VWS V13.00,2013-03-31 11:40:00,
2013-03-31 07:45:00,32.4,24.4,30.02,WNW,288,0.0,0.0,72,0.00,,CLR,0.00,VWS V13.00,2013-03-31 11:45:00,
2013-03-31 07:50:00,32.7,24.7,30.02,WNW,288,0.0,0.0,72,0.00,,CLR,0.00,VWS V13.00,2013-03-31 11:50:00,
2013-03-31 07:55:00,32.9,24.9,30.02,WNW,288,0.0,0.0,72,0.00,,CLR,0.00,VWS V13.00,2013-03-31 11:55:00,
2013-03-31 08:00:00,33.4,25.4,30.02,WNW,288,0.0,0.0,72,0.00,,CLR,0.00,VWS V13.00,2013-03-31 12:00:00,
2013-03-31 08:05:00,34.3,26.3,30.02,WNW,288,3.1,3.1,72,0.00,,CLR,0.00,VWS V13.00,2013-03-31 12:05:00,
2013-03-31 08:10:00,35.1,27.0,30.02,SW,225,2.7,3.6,72,0.00,,CLR,0.00,VWS V13.00,2013-03-31 12:10:00,
2013-03-31 08:15:00,36.1,27.7,30.02,SW,214,3.1,4.0,71,0.00,,CLR,0.00,VWS V13.00,2013-03-31 12:15:00,
2013-03-31 08:20:00,37.8,29.2,30.02,SW,216,2.7,4.0,71,0.00,,CLR,0.00,VWS V13.00,2013-03-31 12:20:00,
2013-03-31 08:25:00,39.7,30.4,30.02,SSW,209,3.6,4.9,69,0.00,,CLR,0.00,VWS V13.00,2013-03-31 12:25:00,
2013-03-31 08:30:00,42.3,31.4,30.02,SSW,195,5.4,6.3,65,0.00,,CLR,0.00,VWS V13.00,2013-03-31 12:30:00,
2013-03-31 08:35:00,44.1,30.7,30.02,SSW,212,3.6,7.6,59,0.00,,CLR,0.00,VWS V13.00,2013-03-31 12:35:00,
2013-03-31 08:40:00,45.3,30.1,30.02,SSW,204,4.9,4.9,55,0.00,,CLR,0.00,VWS V13.00,2013-03-31 12:40:00,
2013-03-31 08:45:00,46.4,29.8,30.02,SW,227,5.4,5.8,52,0.00,,CLR,0.00,VWS V13.00,2013-03-31 12:45:00,
2013-03-31 08:50:00,46.8,29.1,30.02,South,174,5.4,5.8,50,0.00,,CLR,0.00,VWS V13.00,2013-03-31 12:50:00,
2013-03-31 08:56:00,46.8,28.1,30.02,SSW,200,5.4,8.7,48,0.00,,CLR,0.00,VWS V13.00,2013-03-31 12:56:00,
2013-03-31 09:01:00,46.9,28.3,30.02,WSW,255,5.8,6.3,48,0.00,,CLR,0.00,VWS V13.00,2013-03-31 13:01:00,
2013-03-31 09:06:00,47.3,28.1,30.02,SSW,212,4.0,8.3,47,0.00,,CLR,0.00,VWS V13.00,2013-03-31 13:06:00,
2013-03-31 09:11:00,47.5,27.8,30.02,SSW,197,5.4,10.1,46,0.00,,CLR,0.00,VWS V13.00,2013-03-31 13:11:00,
2013-03-31 09:17:00,47.8,27.0,30.02,South,191,6.3,10.1,44,0.00,,CLR,0.00,VWS V13.00,2013-03-31 13:17:00,
2013-03-31 09:22:00,48.6,27.6,30.02,South,176,5.8,5.8,44,0.00,,CLR,0.00,VWS V13.00,2013-03-31 13:22:00,
2013-03-31 09:27:00,48.9,27.4,30.02,South,187,5.8,7.6,43,0.00,,CLR,0.00,VWS V13.00,2013-03-31 13:27:00,
2013-03-31 09:32:00,48.9,26.9,30.02,South,187,6.3,10.1,42,0.00,,-RA,0.00,VWS V13.00,2013-03-31 13:32:00,
2013-03-31 09:37:00,49.3,27.2,30.02,SSW,199,5.8,10.1,42,0.00,,-RA,0.00,VWS V13.00,2013-03-31 13:37:00,
2013-03-31 09:42:00,49.6,26.9,30.02,South,175,4.9,8.7,41,0.00,,-RA,0.00,VWS V13.00,2013-03-31 13:42:00,
2013-03-31 09:48:00,49.8,27.1,30.02,SSW,195,7.6,8.7,41,0.00,,-RA,0.00,VWS V13.00,2013-03-31 13:48:00,
2013-03-31 09:53:00,50.4,27.0,30.02,SSW,196,8.7,8.7,40,0.00,,-RA,0.00,VWS V13.00,2013-03-31 13:53:00,
2013-03-31 09:58:00,50.9,26.8,29.99,South,174,8.3,8.7,39,0.00,,-RA,0.00,VWS V13.00,2013-03-31 13:58:00,
2013-03-31 10:03:00,51.3,27.2,29.99,SSW,198,5.4,8.1,39,0.00,,-RA,0.00,VWS V13.00,2013-03-31 14:03:00,
2013-03-31 10:08:00,51.4,27.3,29.99,South,183,7.6,11.0,39,0.00,,-RA,0.00,VWS V13.00,2013-03-31 14:08:00,
2013-03-31 10:13:00,51.6,26.9,29.99,South,188,8.7,11.0,38,0.00,,-RA,0.00,VWS V13.00,2013-03-31 14:13:00,
2013-03-31 10:18:00,52.0,27.2,29.99,South,186,4.5,11.0,38,0.00,,-RA,0.00,VWS V13.00,2013-03-31 14:18:00,
2013-03-31 10:23:00,52.5,27.7,29.99,SSW,192,5.4,8.3,38,0.00,,-RA,0.00,VWS V13.00,2013-03-31 14:23:00,
2013-03-31 10:28:00,52.9,27.3,29.99,South,176,8.1,10.1,37,0.00,,-RA,0.00,VWS V13.00,2013-03-31 14:28:00,
2013-03-31 10:33:00,53.1,27.5,29.99,SW,221,10.1,11.0,37,0.00,,CLR,0.00,VWS V13.00,2013-03-31 14:33:00,
2013-03-31 10:38:00,53.2,27.7,29.99,SSW,196,10.5,13.2,37,0.00,,CLR,0.00,VWS V13.00,2013-03-31 14:38:00,
2013-03-31 10:43:00,53.2,27.7,29.99,SSE,157,6.3,11.0,37,0.00,,CLR,0.00,VWS V13.00,2013-03-31 14:43:00,
2013-03-31 10:48:00,53.4,27.8,29.99,South,191,9.6,12.3,37,0.00,,CLR,0.00,VWS V13.00,2013-03-31 14:48:00,
2013-03-31 10:53:00,53.6,27.3,29.99,SSE,154,8.7,17.0,36,0.00,,CLR,0.00,VWS V13.00,2013-03-31 14:53:00,
2013-03-31 10:58:00,53.6,27.3,29.99,South,170,9.6,17.0,36,0.00,,CLR,0.00,VWS V13.00,2013-03-31 14:58:00,
2013-03-31 11:03:00,54.1,27.8,29.99,SE,140,7.2,9.6,36,0.00,,CLR,0.00,VWS V13.00,2013-03-31 15:03:00,
2013-03-31 11:08:00,54.0,27.6,29.99,SE,140,10.5,11.0,36,0.00,,CLR,0.00,VWS V13.00,2013-03-31 15:08:00,
2013-03-31 11:13:00,53.4,27.1,29.99,SSE,156,17.0,21.0,36,0.00,,CLR,0.00,VWS V13.00,2013-03-31 15:13:00,
2013-03-31 11:18:00,53.2,27.0,29.99,South,182,7.6,21.0,36,0.00,,CLR,0.00,VWS V13.00,2013-03-31 15:18:00,
2013-03-31 11:23:00,53.4,27.1,29.99,SSE,163,6.3,12.3,36,0.00,,CLR,0.00,VWS V13.00,2013-03-31 15:23:00,
2013-03-31 11:28:00,53.1,26.8,29.96,SSE,151,10.5,17.0,36,0.00,,CLR,0.00,VWS V13.00,2013-03-31 15:28:00,
2013-03-31 11:33:00,53.8,27.5,29.96,SSE,157,8.1,17.0,36,0.00,,CLR,0.00,VWS V13.00,2013-03-31 15:33:00,
2013-03-31 11:38:00,53.8,27.5,29.96,SSW,203,10.1,17.4,36,0.00,,CLR,0.00,VWS V13.00,2013-03-31 15:38:00,
2013-03-31 11:43:00,54.0,27.6,29.96,SSE,168,6.3,15.4,36,0.00,,CLR,0.00,VWS V13.00,2013-03-31 15:43:00,
2013-03-31 11:48:00,54.5,28.1,29.96,South,174,6.3,15.4,36,0.00,,CLR,0.00,VWS V13.00,2013-03-31 15:48:00,
2013-03-31 11:54:00,54.7,28.3,29.96,South,177,8.1,15.4,36,0.00,,CLR,0.00,VWS V13.00,2013-03-31 15:54:00,
2013-03-31 11:58:00,54.7,28.3,29.96,South,177,10.1,15.4,36,0.00,,CLR,0.00,VWS V13.00,2013-03-31 15:58:00,
2013-03-31 12:04:00,54.9,28.4,29.96,South,171,8.1,12.3,36,0.00,,CLR,0.00,VWS V13.00,2013-03-31 16:04:00,
2013-03-31 12:09:00,55.0,28.6,29.96,SSW,195,5.8,12.8,36,0.00,,CLR,0.00,VWS V13.00,2013-03-31 16:09:00,
2013-03-31 12:14:00,55.2,28.8,29.93,SSE,147,8.1,13.2,36,0.00,,CLR,0.00,VWS V13.00,2013-03-31 16:14:00,
2013-03-31 12:19:00,55.2,28.8,29.93,SSE,148,5.4,14.1,36,0.00,,CLR,0.00,VWS V13.00,2013-03-31 16:19:00,
2013-03-31 12:24:00,55.6,28.4,29.93,SE,141,8.3,11.0,35,0.00,,CLR,0.00,VWS V13.00,2013-03-31 16:24:00,
2013-03-31 12:29:00,55.8,28.5,29.93,SSE,157,11.4,13.2,35,0.00,,CLR,0.00,VWS V13.00,2013-03-31 16:29:00,
2013-03-31 12:34:00,55.6,28.4,29.93,SSE,150,7.6,13.2,35,0.00,,CLR,0.00,VWS V13.00,2013-03-31 16:34:00,
2013-03-31 12:39:00,55.6,28.4,29.93,SE,145,8.7,13.2,35,0.00,,CLR,0.00,VWS V13.00,2013-03-31 16:39:00,
2013-03-31 12:44:00,55.6,28.4,29.93,South,176,6.3,14.5,35,0.00,,CLR,0.00,VWS V13.00,2013-03-31 16:44:00,
2013-03-31 12:49:00,55.8,28.5,29.93,SSE,156,8.3,14.5,35,0.00,,CLR,0.00,VWS V13.00,2013-03-31 16:49:00,
2013-03-31 12:54:00,55.4,28.2,29.93,SE,139,10.1,14.5,35,0.00,,CLR,0.00,VWS V13.00,2013-03-31 16:54:00,
2013-03-31 12:59:00,55.4,28.2,29.93,South,187,10.1,15.4,35,0.00,,CLR,0.00,VWS V13.00,2013-03-31 16:59:00,
2013-03-31 13:04:00,55.2,28.1,29.93,SE,143,13.2,13.2,35,0.00,,CLR,0.00,VWS V13.00,2013-03-31 17:04:00,
2013-03-31 13:09:00,55.2,28.8,29.93,South,179,10.1,13.2,36,0.00,,CLR,0.00,VWS V13.00,2013-03-31 17:09:00,
2013-03-31 13:14:00,55.0,28.6,29.90,SSE,153,4.9,13.2,36,0.00,,CLR,0.00,VWS V13.00,2013-03-31 17:14:00,
2013-03-31 13:19:00,55.4,28.2,29.90,South,174,8.1,13.2,35,0.00,,CLR,0.00,VWS V13.00,2013-03-31 17:19:00,
2013-03-31 13:24:00,55.6,28.4,29.90,SSW,195,8.3,11.9,35,0.00,,CLR,0.00,VWS V13.00,2013-03-31 17:24:00,
2013-03-31 13:29:00,55.6,28.4,29.90,South,178,10.1,15.0,35,0.00,,CLR,0.00,VWS V13.00,2013-03-31 17:29:00,
2013-03-31 13:34:00,56.7,29.3,29.90,SSW,204,8.7,15.0,35,0.00,,CLR,0.00,VWS V13.00,2013-03-31 17:34:00,
2013-03-31 13:39:00,57.6,30.1,29.90,South,177,8.3,15.0,35,0.00,,CLR,0.00,VWS V13.00,2013-03-31 17:39:00,
2013-03-31 13:44:00,58.1,30.6,29.90,South,169,7.2,12.8,35,0.00,,CLR,0.00,VWS V13.00,2013-03-31 17:44:00,
2013-03-31 13:49:00,58.5,30.9,29.90,SSW,196,8.7,13.2,35,0.00,,CLR,0.00,VWS V13.00,2013-03-31 17:49:00,
2013-03-31 13:54:00,57.9,30.5,29.90,South,186,6.3,13.6,35,0.00,,CLR,0.00,VWS V13.00,2013-03-31 17:54:00,
2013-03-31 14:00:00,57.7,30.3,29.90,South,172,5.8,13.6,35,0.00,,CLR,0.00,VWS V13.00,2013-03-31 18:00:00,
2013-03-31 14:05:00,58.1,30.6,29.90,SSW,194,7.6,13.2,35,0.00,,CLR,0.00,VWS V13.00,2013-03-31 18:05:00,
2013-03-31 14:10:00,57.7,30.3,29.90,South,177,8.3,15.4,35,0.00,,CLR,0.00,VWS V13.00,2013-03-31 18:10:00,
2013-03-31 14:15:00,57.0,29.7,29.87,South,183,12.3,15.4,35,0.00,,CLR,0.00,VWS V13.00,2013-03-31 18:15:00,
2013-03-31 14:20:00,56.3,29.0,29.87,SSE,165,12.8,15.4,35,0.00,,CLR,0.00,VWS V13.00,2013-03-31 18:20:00,
2013-03-31 14:25:00,55.9,28.7,29.87,South,183,5.4,13.2,35,0.00,,CLR,0.00,VWS V13.00,2013-03-31 18:25:00,
2013-03-31 14:30:00,55.0,28.6,29.87,South,181,5.4,14.5,36,0.00,,CLR,0.00,VWS V13.00,2013-03-31 18:30:00,
2013-03-31 14:35:00,54.0,29.0,29.87,South,173,13.2,15.9,38,0.00,,BKN085,0.00,VWS V13.00,2013-03-31 18:35:00,
2013-03-31 14:40:00,52.9,30.4,29.87,SSW,199,8.1,17.9,42,0.00,,BKN085,0.00,VWS V13.00,2013-03-31 18:40:00,
2013-03-31 14:45:00,52.5,31.2,29.87,South,181,10.1,10.1,44,0.00,,BKN085,0.00,VWS V13.00,2013-03-31 18:45:00,
2013-03-31 14:50:00,52.5,31.8,29.87,South,176,2.7,10.1,45,0.00,,BKN085,0.00,VWS V13.00,2013-03-31 18:50:00,
2013-03-31 14:55:00,52.3,32.2,29.87,South,189,3.1,10.1,46,0.00,,BKN085,0.00,VWS V13.00,2013-03-31 18:55:00,
2013-03-31 15:00:00,52.0,31.9,29.84,SSE,161,7.6,10.5,46,0.00,,BKN085,0.00,VWS V13.00,2013-03-31 19:00:00,
2013-03-31 15:05:00,52.0,31.9,29.84,South,181,5.4,8.1,46,0.00,,BKN085,0.00,VWS V13.00,2013-03-31 19:05:00,
2013-03-31 15:10:00,52.2,32.6,29.84,SSE,159,6.3,8.1,47,0.00,,BKN085,0.00,VWS V13.00,2013-03-31 19:10:00,
2013-03-31 15:15:00,52.2,32.6,29.84,SSW,199,2.7,8.3,47,0.00,,BKN085,0.00,VWS V13.00,2013-03-31 19:15:00,
2013-03-31 15:21:00,52.3,32.2,29.84,South,182,4.9,4.9,46,0.00,,BKN085,0.00,VWS V13.00,2013-03-31 19:21:00,
2013-03-31 15:26:00,52.3,32.2,29.84,SE,138,5.4,12.8,46,0.00,,BKN085,0.00,VWS V13.00,2013-03-31 19:26:00,
2013-03-31 15:31:00,52.0,30.8,29.84,SSE,150,8.3,12.8,44,0.00,,BKN085,0.00,VWS V13.00,2013-03-31 19:31:00,
2013-03-31 15:36:00,52.0,30.2,29.84,SE,136,2.2,12.8,43,0.00,,OVC060,0.00,VWS V13.00,2013-03-31 19:36:00,
2013-03-31 15:41:00,51.8,30.0,29.84,SSE,157,6.3,8.7,43,0.00,,OVC060,0.00,VWS V13.00,2013-03-31 19:41:00,
2013-03-31 15:46:00,52.0,30.2,29.81,SSE,165,5.4,8.7,43,0.00,,OVC060,0.00,VWS V13.00,2013-03-31 19:46:00,
2013-03-31 15:51:00,52.0,30.8,29.81,East,82,5.4,10.1,44,0.00,,OVC060,0.00,VWS V13.00,2013-03-31 19:51:00,
2013-03-31 15:56:00,51.8,31.1,29.81,SE,128,5.8,10.1,45,0.00,,OVC060,0.00,VWS V13.00,2013-03-31 19:56:00,
2013-03-31 16:01:00,51.4,30.8,29.84,SE,145,8.1,10.1,45,0.00,,OVC060,0.00,VWS V13.00,2013-03-31 20:01:00,
2013-03-31 16:07:00,51.6,31.0,29.84,South,172,5.8,10.1,45,0.00,,OVC060,0.00,VWS V13.00,2013-03-31 20:07:00,
2013-03-31 16:12:00,51.4,30.8,29.84,SE,141,3.1,10.1,45,0.00,,OVC060,0.00,VWS V13.00,2013-03-31 20:12:00,
2013-03-31 16:17:00,51.4,30.8,29.81,SE,124,6.3,10.1,45,0.00,,OVC060,0.00,VWS V13.00,2013-03-31 20:17:00,
2013-03-31 16:22:00,51.6,31.0,29.81,SE,131,6.3,9.2,45,0.00,,OVC060,0.00,VWS V13.00,2013-03-31 20:22:00,
2013-03-31 16:27:00,51.4,30.8,29.81,SE,128,6.3,9.2,45,0.00,,OVC060,0.00,VWS V13.00,2013-03-31 20:27:00,
2013-03-31 16:32:00,51.1,31.0,29.81,South,187,5.8,12.3,46,0.00,,-RA,0.00,VWS V13.00,2013-03-31 20:32:00,
2013-03-31 16:37:00,50.9,30.9,29.81,SSE,168,12.3,15.4,46,0.00,,-RA,0.00,VWS V13.00,2013-03-31 20:37:00,
2013-03-31 16:43:00,50.9,31.4,29.81,SSE,160,11.0,12.3,47,0.00,,-RA,0.00,VWS V13.00,2013-03-31 20:43:00,
2013-03-31 16:48:00,50.9,31.4,29.81,SE,146,7.2,13.2,47,0.00,,-RA,0.00,VWS V13.00,2013-03-31 20:48:00,
2013-03-31 16:53:00,50.7,31.2,29.81,South,170,5.8,13.2,47,0.00,,-RA,0.00,VWS V13.00,2013-03-31 20:53:00,
2013-03-31 16:58:00,50.5,31.1,29.78,SSE,151,8.3,13.2,47,0.00,,-RA,0.00,VWS V13.00,2013-03-31 20:58:00,
2013-03-31 17:03:00,50.2,31.3,29.78,SSE,152,6.7,7.6,48,0.00,,-RA,0.00,VWS V13.00,2013-03-31 21:03:00,
2013-03-31 17:08:00,50.0,31.1,29.78,SE,128,10.1,11.0,48,0.00,,-RA,0.00,VWS V13.00,2013-03-31 21:08:00,
2013-03-31 17:13:00,49.6,31.8,29.78,South,174,3.1,11.4,50,0.00,,-RA,0.00,VWS V13.00,2013-03-31 21:13:00,
2013-03-31 17:18:00,49.3,31.9,29.78,SSW,194,5.8,11.4,51,0.00,,-RA,0.00,VWS V13.00,2013-03-31 21:18:00,
2013-03-31 17:24:00,48.6,32.2,29.78,SSW,194,9.6,11.0,53,0.00,,-RA,0.00,VWS V13.00,2013-03-31 21:24:00,
2013-03-31 17:29:00,48.2,32.8,29.81,SSE,162,4.9,11.0,55,0.00,,-RA,0.00,VWS V13.00,2013-03-31 21:29:00,
2013-03-31 17:34:00,47.5,33.5,29.81,SSE,168,13.6,14.5,58,0.00,,-RA,0.00,VWS V13.00,2013-03-31 21:34:00,
2013-03-31 17:39:00,46.9,34.2,29.81,SE,132,6.3,14.5,61,0.00,,-RA,0.00,VWS V13.00,2013-03-31 21:39:00,
2013-03-31 17:44:00,46.6,35.1,29.81,South,181,8.1,10.5,64,0.00,,-RA,0.00,VWS V13.00,2013-03-31 21:44:00,
2013-03-31 17:49:00,46.0,35.7,29.81,SSE,153,8.1,11.0,67,0.00,,-RA,0.00,VWS V13.00,2013-03-31 21:49:00,
2013-03-31 17:54:00,45.9,35.9,29.81,ESE,106,3.1,11.0,68,0.00,,-RA,0.00,VWS V13.00,2013-03-31 21:54:00,
2013-03-31 18:00:00,45.7,36.1,29.78,SE,132,2.2,11.0,69,0.00,,-RA,0.00,VWS V13.00,2013-03-31 22:00:00,
2013-03-31 18:05:00,45.5,35.9,29.78,ESE,102,4.9,5.4,69,0.00,,-RA,0.00,VWS V13.00,2013-03-31 22:05:00,
2013-03-31 18:10:00,45.3,36.5,29.78,ESE,102,3.6,5.4,71,0.00,,-RA,0.00,VWS V13.00,2013-03-31 22:10:00,
2013-03-31 18:15:00,45.3,36.5,29.78,SSE,163,4.9,5.4,71,0.00,,-RA,0.00,VWS V13.00,2013-03-31 22:15:00,
2013-03-31 18:20:00,45.0,36.5,29.78,South,178,4.5,8.1,72,0.00,,-RA,0.00,VWS V13.00,2013-03-31 22:20:00,
2013-03-31 18:25:00,44.8,36.7,29.78,South,188,8.7,8.7,73,0.00,,-RA,0.00,VWS V13.00,2013-03-31 22:25:00,
2013-03-31 18:30:00,44.6,36.8,29.75,East,100,3.1,8.7,74,0.00,,-RA,0.00,VWS V13.00,2013-03-31 22:30:00,
2013-03-31 18:35:00,44.2,36.8,29.75,ESE,108,3.6,8.7,75,0.00,,-RA,0.00,VWS V13.00,2013-03-31 22:35:00,
2013-03-31 18:40:00,44.1,37.0,29.75,ESE,123,5.8,8.7,76,0.00,,-RA,0.00,VWS V13.00,2013-03-31 22:40:00,
2013-03-31 18:45:00,43.7,36.6,29.75,ESE,122,5.4,8.7,76,0.00,,-RA,0.00,VWS V13.00,2013-03-31 22:45:00,
2013-03-31 18:50:00,43.7,37.3,29.75,ESE,117,3.6,8.7,78,0.00,,-RA,0.00,VWS V13.00,2013-03-31 22:50:00,
2013-03-31 18:55:00,43.5,37.5,29.75,ESE,117,2.7,8.7,79,0.00,,-RA,0.00,VWS V13.00,2013-03-31 22:55:00,
2013-03-31 19:00:00,43.3,37.9,29.72,SE,130,5.8,10.5,81,0.00,,-RA,0.00,VWS V13.00,2013-03-31 23:00:00,
2013-03-31 19:05:00,43.2,38.0,29.72,SSE,157,8.3,8.3,82,0.00,,-RA,0.00,VWS V13.00,2013-03-31 23:05:00,
2013-03-31 19:10:00,43.2,38.4,29.72,ESE,118,6.3,11.9,83,0.04,,-RA,0.04,VWS V13.00,2013-03-31 23:10:00,
2013-03-31 19:15:00,43.2,38.4,29.72,SE,140,3.1,12.8,83,0.04,,-RA,0.04,VWS V13.00,2013-03-31 23:15:00,
2013-03-31 19:20:00,43.0,38.5,29.72,ESE,112,8.1,12.8,84,0.04,,-RA,0.04,VWS V13.00,2013-03-31 23:20:00,
2013-03-31 19:25:00,43.0,38.8,29.72,ESE,121,5.4,8.7,85,0.04,,-RA,0.04,VWS V13.00,2013-03-31 23:25:00,
2013-03-31 19:31:00,43.0,38.8,29.72,SSE,151,8.1,11.4,85,0.04,,-RA,0.04,VWS V13.00,2013-03-31 23:31:00,
2013-03-31 19:36:00,43.0,39.1,29.72,ESE,108,6.7,11.4,86,0.04,,-RA,0.04,VWS V13.00,2013-03-31 23:36:00,
2013-03-31 19:41:00,42.8,38.9,29.72,ESE,116,6.3,6.7,86,0.04,,-RA,0.04,VWS V13.00,2013-03-31 23:41:00,
2013-03-31 19:46:00,42.8,38.9,29.72,SE,142,8.1,12.8,86,0.04,,-RA,0.04,VWS V13.00,2013-03-31 23:46:00,
2013-03-31 19:52:00,42.8,39.2,29.72,SE,124,4.9,12.8,87,0.04,,-RA,0.04,VWS V13.00,2013-03-31 23:52:00,
2013-03-31 19:57:00,42.8,39.2,29.72,SE,139,8.1,12.8,87,0.04,,-RA,0.04,VWS V13.00,2013-03-31 23:57:00,
2013-03-31 20:02:00,42.6,39.0,29.69,ESE,119,5.4,10.1,87,0.04,,-RA,0.04,VWS V13.00,2013-04-01 00:02:00,
2013-03-31 20:07:00,42.6,39.3,29.69,ESE,118,5.8,14.5,88,0.04,,-RA,0.04,VWS V13.00,2013-04-01 00:07:00,
2013-03-31 20:12:00,42.6,39.3,29.69,ESE,120,4.9,14.5,88,0.04,,-RA,0.04,VWS V13.00,2013-04-01 00:12:00,
2013-03-31 20:17:00,42.6,39.3,29.69,SE,140,7.6,14.5,88,0.04,,-RA,0.04,VWS V13.00,2013-04-01 00:17:00,
2013-03-31 20:22:00,42.4,39.4,29.69,ESE,114,8.3,11.0,89,0.00,,-RA,0.04,VWS V13.00,2013-04-01 00:22:00,
2013-03-31 20:27:00,42.4,39.4,29.69,East,95,5.4,12.8,89,0.04,,-RA,0.08,VWS V13.00,2013-04-01 00:27:00,
2013-03-31 20:32:00,42.4,39.4,29.69,ESE,115,4.0,12.8,89,0.04,,-RA,0.08,VWS V13.00,2013-04-01 00:32:00,
2013-03-31 20:37:00,42.4,39.7,29.69,South,181,5.4,12.8,90,0.04,,-RA,0.08,VWS V13.00,2013-04-01 00:37:00,
2013-03-31 20:42:00,42.4,39.7,29.72,SE,134,6.3,10.1,90,0.04,,-RA,0.08,VWS V13.00,2013-04-01 00:42:00,
2013-03-31 20:48:00,42.4,39.7,29.72,SE,128,3.1,10.1,90,0.04,,-RA,0.08,VWS V13.00,2013-04-01 00:48:00,
2013-03-31 20:53:00,42.3,39.5,29.72,ESE,115,7.6,10.1,90,0.04,,-RA,0.08,VWS V13.00,2013-04-01 00:53:00,
2013-03-31 20:58:00,42.3,39.5,29.69,South,178,10.1,11.0,90,0.04,,-RA,0.08,VWS V13.00,2013-04-01 00:58:00,
2013-03-31 21:03:00,42.3,39.5,29.69,SSE,149,4.9,10.5,90,0.04,,-RA,0.08,VWS V13.00,2013-04-01 01:03:00,
2013-03-31 21:08:00,42.3,39.8,29.69,SE,139,6.3,10.5,91,0.04,,-RA,0.08,VWS V13.00,2013-04-01 01:08:00,
2013-03-31 21:13:00,42.3,39.8,29.69,SE,126,6.3,10.5,91,0.04,,-RA,0.08,VWS V13.00,2013-04-01 01:13:00,
2013-03-31 21:18:00,42.3,39.8,29.69,SE,124,4.0,10.5,91,0.04,,-RA,0.08,VWS V13.00,2013-04-01 01:18:00,
2013-03-31 21:23:00,42.3,39.8,29.69,SE,131,5.4,8.3,91,0.04,,-RA,0.08,VWS V13.00,2013-04-01 01:23:00,
2013-03-31 21:29:00,42.3,39.8,29.69,ESE,117,5.8,10.1,91,0.04,,-RA,0.08,VWS V13.00,2013-04-01 01:29:00,
2013-03-31 21:34:00,42.4,40.0,29.69,East,100,4.9,10.1,91,0.04,,RA,0.08,VWS V13.00,2013-04-01 01:34:00,
2013-03-31 21:39:00,42.4,40.3,29.69,SE,142,4.9,11.0,92,0.04,,RA,0.08,VWS V13.00,2013-04-01 01:39:00,
2013-03-31 21:44:00,42.4,40.3,29.66,SSE,147,6.3,6.3,92,0.00,,RA,0.08,VWS V13.00,2013-04-01 01:44:00,
2013-03-31 21:49:00,42.4,40.3,29.66,SE,137,5.4,8.3,92,0.00,,RA,0.08,VWS V13.00,2013-04-01 01:49:00,
2013-03-31 21:54:00,42.4,40.3,29.66,SSE,161,0.0,8.3,92,0.00,,RA,0.08,VWS V13.00,2013-04-01 01:54:00,
2013-03-31 21:59:00,42.4,40.3,29.69,WSW,248,2.2,8.3,92,0.00,,RA,0.08,VWS V13.00,2013-04-01 01:59:00,
2013-03-31 22:04:00,42.4,40.3,29.69,South,185,0.0,3.6,92,0.00,,RA,0.08,VWS V13.00,2013-04-01 02:04:00,
2013-03-31 22:09:00,42.4,40.3,29.69,SSE,152,4.0,5.8,92,0.00,,RA,0.08,VWS V13.00,2013-04-01 02:09:00,
2013-03-31 22:14:00,42.4,40.3,29.69,SSE,162,4.0,5.8,92,0.00,,RA,0.08,VWS V13.00,2013-04-01 02:14:00,
2013-03-31 22:20:00,42.4,40.3,29.69,South,178,3.1,5.8,92,0.00,,RA,0.08,VWS V13.00,2013-04-01 02:20:00,
2013-03-31 22:25:00,42.4,40.3,29.69,SSE,160,0.0,3.1,92,0.00,,RA,0.08,VWS V13.00,2013-04-01 02:25:00,
2013-03-31 22:30:00,42.4,40.3,29.69,West,275,0.0,3.6,92,0.00,,RA,0.08,VWS V13.00,2013-04-01 02:30:00,
2013-03-31 22:35:00,42.4,40.3,29.69,West,275,0.0,3.6,92,0.00,,-RA,0.08,VWS V13.00,2013-04-01 02:35:00,
2013-03-31 22:40:00,42.4,40.3,29.69,West,275,0.0,3.6,92,0.00,,-RA,0.08,VWS V13.00,2013-04-01 02:40:00,
2013-03-31 22:45:00,42.4,40.3,29.66,West,275,0.0,0.0,92,0.00,,-RA,0.08,VWS V13.00,2013-04-01 02:45:00,
2013-03-31 22:50:00,42.4,40.3,29.66,West,275,0.0,0.0,92,0.00,,-RA,0.08,VWS V13.00,2013-04-01 02:50:00,
2013-03-31 22:55:00,42.4,40.6,29.66,West,275,0.0,0.0,93,0.00,,-RA,0.08,VWS V13.00,2013-04-01 02:55:00,
2013-03-31 23:00:00,42.4,40.6,29.66,West,275,0.0,0.0,93,0.00,,-RA,0.08,VWS V13.00,2013-04-01 03:00:00,
2013-03-31 23:05:00,42.4,40.6,29.66,West,275,0.0,0.0,93,0.00,,-RA,0.08,VWS V13.00,2013-04-01 03:05:00,
2013-03-31 23:10:00,42.6,40.7,29.66,West,275,0.0,0.0,93,0.00,,-RA,0.08,VWS V13.00,2013-04-01 03:10:00,
2013-03-31 23:15:00,42.6,40.7,29.66,West,275,0.0,0.0,93,0.00,,-RA,0.08,VWS V13.00,2013-04-01 03:15:00,
2013-03-31 23:20:00,42.6,40.7,29.66,West,275,0.0,0.0,93,0.00,,-RA,0.08,VWS V13.00,2013-04-01 03:20:00,
2013-03-31 23:25:00,42.6,40.7,29.66,West,275,0.0,0.0,93,0.00,,-RA,0.08,VWS V13.00,2013-04-01 03:25:00,
2013-03-31 23:30:00,42.6,40.7,29.66,West,275,0.0,0.0,93,0.00,,-RA,0.08,VWS V13.00,2013-04-01 03:30:00,
2013-03-31 23:36:00,42.6,40.7,29.66,West,275,0.0,0.0,93,0.00,,-RA,0.08,VWS V13.00,2013-04-01 03:36:00,
2013-03-31 23:41:00,42.6,40.7,29.66,West,275,0.0,0.0,93,0.00,,-RA,0.08,VWS V13.00,2013-04-01 03:41:00,
2013-03-31 23:46:00,42.6,40.7,29.66,West,275,0.0,0.0,93,0.00,,-RA,0.08,VWS V13.00,2013-04-01 03:46:00,
2013-03-31 23:51:00,42.6,40.7,29.66,West,275,0.0,0.0,93,0.00,,-RA,0.08,VWS V13.00,2013-04-01 03:51:00,
2013-03-31 23:56:00,42.6,40.7,29.66,West,275,0.0,0.0,93,0.00,,-RA,0.08,VWS V13.00,2013-04-01 03:56:00,